Location: ???????
(55.3754°N, 39.3545°E)
Time: 14:53:52
(UTC+00:00)

Ariane Rocket - Pass Details

Date: 14 April 2026
Orbit: 755 x 763 km, 98.4° (Epoch: 17 May)

Event Time Altitude Azimuth Distance (km) Brightness Sun altitude
Exits shadow 19:29:39 24° 208° (SSW) 1,524 4.2 -20.8°
Maximum altitude 19:32:09 41° 263° (W) 1,096 3.9 -21.0°
Drops below altitude 10° 19:36:56 10° 333° (NNW) 2,297 6.6 -21.3°
Sets 19:39:23 0° 341° (NNW) 3,228 7.7 -21.5°
